Location: ?
(35.4554°N, 139.3092°E)
Time: 22:31:58
(UTC+00:00)

Cosmos 1934 Rocket - Pass Details

Date: 21 April 2021
Orbit: 938 x 999 km, 83.0° (Epoch: 10 May)

Event Time Altitude Azimuth Distance (km) Brightness Sun altitude
Rises 17:37:26 0° 351° (N) 3,695 7.4 -26.8°
Reaches altitude 10° 17:39:58 10° 350° (N) 2,735 6.7 -26.4°
Maximum altitude 17:46:13 76° 266° (W) 996 3.8 -25.4°
Enters shadow 17:47:44 53° 195° (SSW) 1,171 4.1 -25.2°
